Погода в Резольюте

Канада     74°42′29″N   94°58′11″W
темп.,
°C
ветер,
м/с
пор.,
м/с
влажн.,
%
обл.,
%
осадки,
мм/ч
давл.,
гПа
погр.,
м
24 октября, вс
вс2401:00−6вюв10158895 0.0 1006348
04:00−5юв11159299 0.1 1005442
07:00−6юв101487100 0.1 1004350
10:00−6юв10148939 0.0 1004359
13:00−6юв9139195 0.0 1003347
16:00−5юв81093100 0.1 1003310
19:00−4юв81095100 0.3 1002283
22:00−4юв5996100 0.3 1001332
25 октября, пн
пн2501:00−3ю4797100 0.5 1002339
04:00−4ююз3497100 0.1 1002158
07:00−4ююз3597100 0.2 1003224
10:00−4ю3597100 0.1 1003181
13:00−4ююв3597100 0.2 1002205
16:00−3вюв4796100 0.1 1001225
19:00−2юв5896100 0.1 999249
22:00−2юв81196100 0.1 998368
26 октября, вт
вт2601:00−3юв81097100 1.1 996346
04:00−2ююв51097100 1.4 996415
07:00−2ю51098100 2.3 996263
10:00−1ю599899 0.8 996277
13:00−1ю489999 1.4 998247
16:00−1ю4799100 0.2 999208
19:00−1ю4799100 0.6 1000193
22:00−1ююв3798100 0.3 1000219
27 октября, ср
ср2701:00−2юв3498100 0.6 1000102
04:00−2вюв3698100 0.3 1000136
07:00−2вюв589791 0.6 1000208
10:00−3вюв479685 0.1 1000153
13:00−2вюв5895100 0.1 1001254
16:00−2вюв589599 0.0 1002216
19:00−3вюв589593 0.0 1002232
22:00−3в479583 0.0 1003220
28 октября, чт
чт2801:00−5в469678 0.0 100371
04:00−5в369577 0.1 100398
07:00−4в379678 0.2 1004124
10:00−3в489588 0.1 1004147
13:00−3в589470 0.3 1003171
16:00−3в599476 0.1 1004176
19:00−3в6109485 0.2 1003227
22:00−4в599480 0.1 1002205